[[{"header":{"parameterUnit":"m.s-1","parameterCategory":2,"la1":30.2991,"la2":30.254,"lo1":-89.0895,"lo2":-89.0444,"dy":0.0017,"dx":0.0017,"nx":28,"ny":28,"refTime":"2023-10-14T09:00:00:Z","depth":"0","parameterNumber":2,"parameterNumberName":"U-component_of_CURRENTS"},"data":[0,0,0,0,0,0,0,0,0,0,0,0,0,0,0,0,0,0,0,0,0,0,0,0,0,0,0,0,0,0,0,0,0,0,0,0,0,0,0,0,0,0,0,0,0,0,0,0,0,0,0,0,0,0,0,0,0,0,0.2402,0.2401,0,0.2383,0.2384,0.2385,0.2449,0.245,0.245,0.2451,0.2248,0.2242,0.2236,0,0,0,0,0,0,0,0,0,0,0,0,0,0.2532,0.253,0.2402,0.2401,0.2399,0.2383,0.2384,0.2385,0.2449,0.245,0.245,0.2451,0.225,0.2243,0.2236,0,0,0,0,0,0,0,0,0,0,0,0,0,0.2505,0.2529,0.2403,0.2417,0.2417,0.2383,0.2384,0.2386,0.2449,0.245,0.245,0.2451,0.2252,0.2243,0.2235,0.2166,0,0,0.2208,0.2204,0,0,0,0,0,0,0,0,0.2507,0.2503,0.2417,0.2416,0.2415,0.2405,0.2354,0.2298,0.2449,0.2454,0.2451,0.2451,0.2272,0.2262,0.2282,0.2157,0.2148,0.2207,0.2202,0.2198,0.2196,0,0,0,0,0,0,0,0.2508,0.2504,0.2411,0.2414,0.2413,0.2436,0.2435,0.2346,0.2368,0.2453,0.2454,0.2426,0.2273,0.2291,0.2277,0.2145,0.2207,0.22,0.2194,0.2191,0.2036,0.2037,0,0,0,0,0,0,0.2475,0.2505,0.2411,0.2409,0.2446,0.2432,0.2431,0.2421,0.2373,0.2363,0.2425,0.2429,0.2305,0.2287,0.2269,0.2246,0.2198,0.219,0.2185,0.2035,0.2036,0.2037,0,0,0,0,0,0,0.2479,0.2468,0.2412,0.2443,0.2435,0.2427,0.2416,0.242,0.243,0.2351,0.2342,0.2429,0.2305,0.2282,0.2228,0.2235,0.2186,0.2178,0.2033,0.2035,0.2037,0.2157,0,0,0,0,0,0,0.2483,0.247,0.2459,0.2441,0.2431,0.2387,0.2414,0.2418,0.2404,0.2409,0.2349,0.2333,0.2304,0.2242,0.2219,0.2222,0.2171,0.2032,0.2034,0.2036,0.2151,0.2162,0.2172,0,0,0,0,0,0.2488,0.2479,0.246,0.2447,0.2415,0.2385,0.2385,0.2392,0.2403,0.2407,0.2395,0.2335,0.224,0.2236,0.2209,0.2209,0.2031,0.2033,0.2036,0.2147,0.216,0.2171,0,0,0,0,0,0,0.2549,0.2481,0.2461,0.2437,0.2401,0.2389,0.2385,0.2381,0.2381,0.2381,0.2336,0.2319,0.2287,0.2222,0.2219,0.2175,0.2128,0.2125,0.2221,0.2233,0.2243,0.2247,0.2164,0,0,0,0,0,0.2543,0.2513,0.2455,0.2436,0.2412,0.2394,0.2382,0.2377,0.2361,0.2365,0.2339,0.2304,0.2277,0.2235,0.2202,0.2143,0.2105,0.2131,0.2142,0.2151,0.2139,0.2088,0.2093,0.2046,0.2046,0.2046,0,0,0.2559,0.2516,0.25,0.2443,0.2423,0.2389,0.2395,0.2367,0.2374,0.233,0.235,0.2332,0.2275,0.2261,0.2235,0.22,0.2159,0.2154,0.2162,0.2144,0.2092,0.2096,0.21,0.2047,0.2047,0.2047,0,0,0.2567,0.2536,0.2504,0.2455,0.2388,0.2386,0.2368,0.2351,0.2384,0.237,0.2377,0.2365,0.2299,0.2296,0.2272,0.2296,0.2228,0.2282,0.2311,0.2264,0.2267,0.2269,0.2292,0.2295,0.227,0.227,0.227,0,0.2583,0.2527,0.2495,0.2435,0.2401,0.2379,0.2346,0.2367,0.2352,0.2385,0.238,0.2359,0.232,0.2306,0.2352,0.2316,0.2301,0.2273,0.2278,0.2278,0.2278,0.23,0.2301,0.2276,0.2275,0.2275,0.2274,0,0.2554,0.2491,0.2468,0.2393,0.2375,0.233,0.2327,0.2353,0.2383,0.2406,0.2426,0.2401,0.2382,0.2384,0.2377,0.2369,0.2369,0.2313,0.2248,0.229,0.2311,0.2311,0.2285,0.2283,0.2281,0.2279,0,0,0.2589,0.2474,0.2451,0.2408,0.2338,0.2326,0.2354,0.2382,0.241,0.2424,0.2456,0.2463,0.2462,0.2436,0.242,0.239,0.2423,0.2363,0.2358,0.2391,0.2373,0.2379,0.2379,0.2365,0.2364,0.2363,0.2412,0,0.2559,0.2452,0.2428,0.2359,0.2295,0.2306,0.2343,0.2375,0.2415,0.2449,0.2455,0.246,0.2475,0.2459,0.2445,0.2414,0.2416,0.2418,0.2321,0.2319,0.2321,0.2375,0.2223,0.2252,0.2411,0.2411,0.2411,0,0.2484,0.2431,0.2353,0.232,0.2309,0.2303,0.2356,0.2383,0.2436,0.2466,0.2473,0.2474,0.2473,0.2448,0.2428,0.2429,0.2424,0.24,0.2399,0.2349,0.2321,0.2221,0.2244,0.2069,0.2409,0.2409,0.2409,0,0.245,0.2366,0.2322,0.2284,0.2263,0.2297,0.2329,0.2385,0.243,0.2454,0.2456,0.2463,0.2434,0.2419,0.2419,0.2416,0.2381,0.2354,0.2367,0.237,0.219,0.2178,0.2022,0.2334,0.2334,0.2334,0.2334,0,0.2367,0.23,0.2299,0.225,0.2267,0.2272,0.2319,0.2354,0.2393,0.2425,0.2448,0.244,0.2416,0.2409,0.2416,0.2404,0.2379,0.2387,0.2369,0.2238,0.223,0.2025,0.2018,0.2336,0.2335,0.2335,0.2335,0,0.2254,0.223,0.2176,0.2203,0.2217,0.2226,0.2298,0.2326,0.2366,0.2385,0.2386,0.2413,0.2419,0.2422,0.239,0.2385,0.2286,0.2373,0.2267,0.2236,0.2097,0.2106,0.1984,0.1948,0.2404,0.2404,0.2404,0,0.2151,0.2112,0.215,0.2158,0.2161,0.2193,0.2219,0.2286,0.2315,0.2374,0.237,0.2392,0.2408,0.2397,0.2376,0.239,0.2293,0.2251,0.2211,0.2077,0.2072,0.2037,0.2014,0.2051,0.2048,0.2046,0.2044,0,0.2017,0.2058,0.2087,0.2094,0.2115,0.2151,0.2195,0.2211,0.229,0.2301,0.2325,0.234,0.2356,0.2287,0.2302,0.2286,0.2104,0.221,0.2042,0.1773,0.1747,0.1705,0.2092,0.2024,0.2026,0.2028,0.2029,0.203,0.1961,0.1984,0.2056,0.2068,0.2082,0.2102,0.2127,0.2166,0.2195,0.2183,0.224,0.2169,0.211,0.2124,0.2104,0.1895,0.2038,0.1769,0.18,0.1782,0.1702,0.2108,0.2032,0.2034,0.2035,0.2037,0.2038,0,0.192,0.1977,0.2008,0.2048,0.2044,0.2069,0.2108,0.21,0.2093,0.2035,0.2025,0.1844,0.1742,0.1669,0.1529,0.1434,0.1383,0.1351,0.119,0.1199,0.1483,0.1413,0.1231,0.1231,0.1231,0.1231,0.1231,0.1232,0.1907,0.1956,0.1999,0.1999,0.2013,0.1994,0.2006,0.1947,0.189,0.1695,0.1534,0.148,0.1369,0.1173,0.0958,0.0934,0.085,0.0835,0.0902,0.0986,0.1023,0.1058,0.0979,0.0709,0.0709,0.0482,0.048,0.0478]},{"header":{"parameterUnit":"m.s-1","parameterCategory":2,"la1":30.2991,"la2":30.254,"lo1":-89.0895,"lo2":-89.0444,"dy":0.0017,"dx":0.0017,"nx":28,"ny":28,"refTime":"2023-10-14T09:00:00:Z","depth":"0","parameterNumber":3,"parameterNumberName":"V-component_of_CURRENTS"},"data":[0,0,0,0,0,0,0,0,0,0,0,0,0,0,0,0,0,0,0,0,0,0,0,0,0,0,0,0,0,0,0,0,0,0,0,0,0,0,0,0,0,0,0,0,0,0,0,0,0,0,0,0,0,0,0,0,0,0,-0.126,-0.1259,0,-0.1268,-0.127,-0.1271,-0.1293,-0.1292,-0.1291,-0.1291,-0.1133,-0.113,-0.1126,0,0,0,0,0,0,0,0,0,0,0,0,0,-0.1333,-0.1332,-0.1261,-0.1259,-0.1258,-0.1268,-0.127,-0.1271,-0.1293,-0.1292,-0.1291,-0.129,-0.1134,-0.113,-0.1126,0,0,0,0,0,0,0,0,0,0,0,0,0,-0.1331,-0.1332,-0.1261,-0.126,-0.1259,-0.1268,-0.127,-0.1272,-0.1293,-0.1292,-0.1291,-0.129,-0.1136,-0.1131,-0.1126,-0.1119,0,0,-0.111,-0.1108,0,0,0,0,0,0,0,0,-0.1331,-0.133,-0.1261,-0.126,-0.1258,-0.1266,-0.1237,-0.1207,-0.1294,-0.1295,-0.1291,-0.1289,-0.1154,-0.1147,-0.1174,-0.1112,-0.1105,-0.1109,-0.1106,-0.1104,-0.1103,0,0,0,0,0,0,0,-0.1331,-0.133,-0.1278,-0.126,-0.1258,-0.1281,-0.1281,-0.1234,-0.124,-0.1295,-0.1293,-0.1272,-0.1154,-0.1179,-0.117,-0.1103,-0.111,-0.1105,-0.1102,-0.11,-0.1078,-0.108,0,0,0,0,0,0,-0.1299,-0.133,-0.1278,-0.1277,-0.1276,-0.128,-0.128,-0.1277,-0.1244,-0.1235,-0.1273,-0.1272,-0.1189,-0.1176,-0.1164,-0.1185,-0.1104,-0.1099,-0.1096,-0.1075,-0.1078,-0.1081,0,0,0,0,0,0,-0.1301,-0.1295,-0.1277,-0.1291,-0.1288,-0.1278,-0.1275,-0.1277,-0.1291,-0.1226,-0.1216,-0.1281,-0.1187,-0.1171,-0.1144,-0.1176,-0.1097,-0.1092,-0.1072,-0.1076,-0.108,-0.1204,0,0,0,0,0,0,-0.1303,-0.1297,-0.1292,-0.1289,-0.1286,-0.1274,-0.1275,-0.1278,-0.1273,-0.1273,-0.1229,-0.1215,-0.1185,-0.1152,-0.1139,-0.1168,-0.1088,-0.1069,-0.1074,-0.1078,-0.1197,-0.1212,-0.1224,0,0,0,0,0,-0.1306,-0.1315,-0.1292,-0.1285,-0.1278,-0.1272,-0.1276,-0.1273,-0.1274,-0.1284,-0.1274,-0.1216,-0.1172,-0.115,-0.1133,-0.1162,-0.1067,-0.1073,-0.1078,-0.1191,-0.1209,-0.1224,0,0,0,0,0,0,-0.1359,-0.1316,-0.1292,-0.1289,-0.1267,-0.127,-0.128,-0.1272,-0.128,-0.1275,-0.1234,-0.122,-0.1217,-0.1172,-0.1148,-0.1175,-0.1115,-0.1117,-0.1206,-0.1222,-0.1236,-0.1218,-0.1084,0,0,0,0,0,-0.1358,-0.1344,-0.1308,-0.1302,-0.1296,-0.1287,-0.1285,-0.1273,-0.1268,-0.1273,-0.1252,-0.1234,-0.1233,-0.121,-0.1195,-0.1188,-0.1133,-0.1202,-0.1216,-0.1228,-0.1206,-0.1176,-0.1184,-0.1099,-0.1099,-0.1099,0,0,-0.137,-0.1344,-0.1334,-0.1308,-0.1304,-0.1288,-0.1289,-0.1281,-0.1291,-0.1247,-0.1276,-0.1271,-0.1244,-0.1265,-0.1258,-0.1222,-0.123,-0.1235,-0.1245,-0.1216,-0.1183,-0.119,-0.1197,-0.1103,-0.1102,-0.1102,0,0,-0.1393,-0.1373,-0.137,-0.1334,-0.1296,-0.1295,-0.1285,-0.1285,-0.132,-0.1322,-0.1327,-0.1337,-0.1313,-0.1326,-0.1322,-0.139,-0.1309,-0.1397,-0.1438,-0.1412,-0.1417,-0.1421,-0.1385,-0.1384,-0.1397,-0.1398,-0.1398,0,-0.1412,-0.1382,-0.1369,-0.134,-0.1313,-0.1294,-0.1281,-0.1312,-0.1307,-0.1357,-0.1332,-0.1363,-0.1343,-0.1381,-0.1431,-0.1417,-0.1385,-0.1379,-0.1427,-0.143,-0.1432,-0.1392,-0.1391,-0.1404,-0.1404,-0.1403,-0.1402,0,-0.142,-0.1372,-0.137,-0.1322,-0.1315,-0.1288,-0.1298,-0.1334,-0.1361,-0.1392,-0.1447,-0.1435,-0.1448,-0.147,-0.147,-0.1505,-0.1474,-0.1453,-0.1379,-0.1447,-0.1403,-0.1398,-0.1414,-0.1412,-0.141,-0.1408,0,0,-0.151,-0.1397,-0.1387,-0.1347,-0.1289,-0.1293,-0.1335,-0.1389,-0.1434,-0.1455,-0.1506,-0.1553,-0.1557,-0.1553,-0.1557,-0.1544,-0.1562,-0.1517,-0.1513,-0.147,-0.1498,-0.1392,-0.1376,-0.1553,-0.1552,-0.1552,-0.1468,0,-0.1513,-0.1426,-0.1403,-0.135,-0.1301,-0.131,-0.1357,-0.1406,-0.1455,-0.1506,-0.1542,-0.1564,-0.1588,-0.1582,-0.1591,-0.1554,-0.1553,-0.1585,-0.1445,-0.144,-0.1329,-0.1368,-0.1234,-0.114,-0.1463,-0.1462,-0.1461,0,-0.1508,-0.1448,-0.1369,-0.1334,-0.1336,-0.1334,-0.1404,-0.144,-0.1523,-0.1558,-0.1591,-0.16,-0.1613,-0.1593,-0.1562,-0.1584,-0.1561,-0.1525,-0.152,-0.1362,-0.1325,-0.1121,-0.1119,-0.11,-0.1454,-0.1454,-0.1455,0,-0.1507,-0.1436,-0.1372,-0.1331,-0.1297,-0.1347,-0.1387,-0.1465,-0.1506,-0.1564,-0.1551,-0.1596,-0.1546,-0.1545,-0.1504,-0.1534,-0.1427,-0.1449,-0.1334,-0.1326,-0.1147,-0.1123,-0.109,-0.1424,-0.1424,-0.1424,-0.1424,0,-0.1469,-0.1406,-0.1364,-0.1306,-0.1322,-0.1337,-0.1388,-0.1445,-0.1483,-0.1483,-0.1559,-0.1503,-0.1527,-0.1481,-0.1483,-0.1371,-0.1409,-0.1326,-0.1292,-0.1191,-0.1173,-0.1093,-0.1128,-0.1421,-0.1422,-0.1422,-0.1423,0,-0.1399,-0.1337,-0.1268,-0.127,-0.1277,-0.1294,-0.1342,-0.1366,-0.1418,-0.1388,-0.1386,-0.1405,-0.1339,-0.1354,-0.13,-0.1286,-0.1175,-0.1185,-0.106,-0.1012,-0.0891,-0.0937,-0.0846,-0.0819,-0.1044,-0.1041,-0.1038,0,-0.1323,-0.1258,-0.1237,-0.1215,-0.1205,-0.1229,-0.123,-0.13,-0.1293,-0.1297,-0.1249,-0.1212,-0.112,-0.1022,-0.1008,-0.0966,-0.1027,-0.083,-0.0867,-0.0847,-0.0876,-0.0932,-0.0923,-0.0695,-0.069,-0.0686,-0.0682,0,-0.1214,-0.1207,-0.1204,-0.1136,-0.112,-0.1091,-0.1103,-0.1076,-0.1119,-0.106,-0.0947,-0.0875,-0.081,-0.0671,-0.066,-0.0657,-0.0774,-0.0738,-0.0746,-0.0614,-0.0641,-0.0609,-0.0799,-0.0644,-0.0648,-0.0651,-0.0653,-0.0654,-0.1171,-0.115,-0.1137,-0.1076,-0.1038,-0.0936,-0.0888,-0.0858,-0.0769,-0.0629,-0.063,-0.0429,-0.0372,-0.0319,-0.0362,-0.0356,-0.0482,-0.0334,-0.0397,-0.046,-0.0417,-0.0516,-0.0307,-0.0309,-0.0311,-0.0312,-0.0313,0,-0.1064,-0.1053,-0.1048,-0.096,-0.0864,-0.0861,-0.077,-0.0668,-0.048,-0.0331,-0.0161,0.0063,0.0151,0.0074,0.0043,0.0011,-0.0074,-0.0038,-0.0101,-0.0115,-0.0194,-0.016,0.0127,0.0127,0.0127,0.0127,0.0126,0.0126,-0.1012,-0.0959,-0.0953,-0.0778,-0.0711,-0.054,-0.0452,-0.0287,-0.0152,0.0163,0.036,0.0469,0.0439,0.0304,0.0229,0.0191,0.0096,0.0119,0.0008,-0.006,-0.0094,-0.0127,-0.0102,0.0192,0.0192,0.0154,0.0154,0.0153]}],[{"header":{"parameterUnit":"m.s-1","parameterCategory":2,"la1":30.2991,"la2":30.254,"lo1":-89.0895,"lo2":-89.0444,"dy":0.0017,"dx":0.0017,"nx":28,"ny":28,"refTime":"2023-10-14T09:00:00:Z","depth":"2","parameterNumber":2,"parameterNumberName":"U-component_of_CURRENTS"},"data":[0,0,0,0,0,0,0,0,0,0,0,0,0,0,0,0,0,0,0,0,0,0,0,0,0,0,0,0,0,0,0,0,0,0,0,0,0,0,0,0,0,0,0,0,0,0,0,0,0,0,0,0,0,0,0,0,0,0,0.0859,0.0864,0,0.1042,0.1041,0.104,0.1079,0.1081,0.1083,0.1085,0.1103,0.1102,0.11,0,0,0,0,0,0,0,0,0,0,0,0,0,0.06,0.0601,0.0859,0.0865,0.0871,0.1042,0.1041,0.1039,0.1078,0.1081,0.1084,0.1086,0.1104,0.1102,0.11,0,0,0,0,0,0,0,0,0,0,0,0,0,0.0704,0.0601,0.0858,0.0939,0.0951,0.1042,0.1041,0.1039,0.1078,0.1081,0.1084,0.1087,0.1104,0.1102,0.11,0.1019,0,0,0.1093,0.1092,0,0,0,0,0,0,0,0,0.0697,0.0708,0.0921,0.0934,0.0948,0.1075,0.0959,0.1038,0.1077,0.0988,0.1085,0.1089,0.1101,0.1099,0.1074,0.102,0.1021,0.1092,0.1091,0.109,0.1089,0,0,0,0,0,0,0,0.069,0.0701,0.0892,0.0928,0.0945,0.0989,0.1002,0.0971,0.0991,0.0996,0.1009,0.109,0.1102,0.1076,0.1075,0.1021,0.1092,0.109,0.1089,0.1088,0.1012,0.1012,0,0,0,0,0,0,0.0739,0.0694,0.0887,0.0901,0.0872,0.0993,0.1006,0.0999,0.0995,0.1011,0.1087,0.1092,0.1078,0.1077,0.1076,0.107,0.109,0.1088,0.1086,0.1013,0.1012,0.1012,0,0,0,0,0,0,0.073,0.075,0.088,0.0838,0.0863,0.0998,0.0987,0.1002,0.0989,0.1074,0.1078,0.1068,0.108,0.1079,0.1117,0.1068,0.1087,0.1085,0.1014,0.1013,0.1012,0.1001,0,0,0,0,0,0,0.072,0.0742,0.0742,0.0838,0.0869,0.0935,0.0989,0.1004,0.1053,0.1059,0.1058,0.1063,0.1083,0.1121,0.1115,0.1065,0.1083,0.1015,0.1013,0.1012,0.1002,0.1,0.0998,0,0,0,0,0,0.0708,0.0743,0.0737,0.0765,0.0863,0.0939,0.095,0.1036,0.1049,0.1029,0.1084,0.1063,0.1107,0.112,0.1113,0.1061,0.1015,0.1014,0.1012,0.1003,0.1,0.0998,0,0,0,0,0,0,0.0662,0.0756,0.0752,0.0816,0.0865,0.0961,0.103,0.102,0.1033,0.1072,0.1076,0.1085,0.1083,0.1081,0.1094,0.1036,0.1045,0.1043,0.1041,0.1038,0.1036,0.1062,0.1081,0,0,0,0,0,0.0642,0.0681,0.0752,0.0811,0.085,0.0904,0.0949,0.0984,0.1043,0.1049,0.1036,0.1051,0.106,0.1067,0.1061,0.1039,0.1076,0.0994,0.0992,0.099,0.1007,0.1048,0.1052,0.1007,0.1007,0.1007,0,0,0.0655,0.0725,0.0746,0.0804,0.0871,0.0898,0.093,0.1024,0.1011,0.105,0.1024,0.1035,0.1053,0.1047,0.104,0.1049,0.1023,0.0988,0.0987,0.1005,0.1047,0.1052,0.1056,0.1006,0.1006,0.1007,0,0,0.0692,0.0747,0.0755,0.0807,0.092,0.0947,0.0958,0.0999,0.0987,0.0988,0.101,0.1022,0.0998,0.1009,0.1017,0.0992,0.1006,0.0957,0.0971,0.101,0.1015,0.1019,0.1082,0.1092,0.0961,0.0961,0.0961,0,0.0695,0.0723,0.0776,0.0814,0.0905,0.0951,0.0978,0.0959,0.0984,0.0979,0.0997,0.1001,0.0985,0.1008,0.1,0.0983,0.1029,0.0981,0.101,0.1015,0.102,0.1083,0.1095,0.0961,0.0961,0.0961,0.0961,0,0.0701,0.0755,0.0816,0.0845,0.0895,0.0988,0.0999,0.0972,0.0977,0.0962,0.0969,0.099,0.1005,0.0967,0.0981,0.0983,0.1013,0.0999,0.1022,0.1025,0.109,0.1102,0.096,0.096,0.096,0.096,0,0,0.0652,0.0776,0.0801,0.0833,0.0953,0.0986,0.0989,0.099,0.0984,0.0977,0.0994,0.0976,0.0993,0.1004,0.1,0.1022,0.107,0.1026,0.1028,0.11,0.1193,0.116,0.1171,0.1073,0.1075,0.1076,0.1228,0,0.065,0.0749,0.0782,0.0859,0.0939,0.0988,0.0979,0.0983,0.0988,0.0988,0.1023,0.1037,0.1004,0.1034,0.1049,0.1058,0.1101,0.1032,0.1171,0.1175,0.1155,0.1183,0.0958,0.107,0.1241,0.1243,0.1244,0,0.0668,0.0732,0.0839,0.0919,0.0942,0.0938,0.0996,0.098,0.1001,0.102,0.1073,0.1096,0.113,0.1115,0.1176,0.1142,0.1172,0.1189,0.1195,0.1181,0.1165,0.1092,0.1087,0.1265,0.1264,0.1262,0.1261,0,0.0708,0.0789,0.0892,0.0945,0.1002,0.0988,0.0975,0.0995,0.101,0.1052,0.1123,0.1155,0.122,0.1249,0.127,0.1233,0.137,0.1319,0.1339,0.1338,0.1182,0.1164,0.1396,0.1396,0.1396,0.1395,0.1395,0,0.0791,0.0859,0.0905,0.0955,0.0991,0.1009,0.1015,0.101,0.1062,0.1115,0.1146,0.1239,0.1258,0.1334,0.1331,0.1385,0.1424,0.1363,0.1376,0.1171,0.1151,0.1339,0.133,0.1401,0.14,0.1399,0.1398,0,0.0867,0.0953,0.1018,0.1025,0.1042,0.105,0.1049,0.1057,0.1098,0.1197,0.1237,0.133,0.1411,0.1451,0.1512,0.1474,0.1512,0.1533,0.1305,0.1286,0.1443,0.1432,0.1553,0.1553,0.1554,0.1554,0.1554,0,0.0921,0.0995,0.1045,0.1078,0.1071,0.1081,0.1118,0.112,0.1139,0.1252,0.1324,0.1441,0.1502,0.1599,0.1546,0.1566,0.1606,0.1378,0.1238,0.146,0.146,0.1448,0.1437,0.1036,0.1032,0.1029,0.1026,0,0.0927,0.0971,0.0973,0.1084,0.1124,0.1159,0.1163,0.1207,0.1237,0.1294,0.1377,0.1429,0.1528,0.1414,0.1446,0.142,0.1335,0.1311,0.1615,0.1025,0.0982,0.0979,0.0983,0.0996,0.0999,0.1001,0.1003,0.1004,0.087,0.0916,0.096,0.1063,0.112,0.1195,0.1167,0.1188,0.1224,0.1236,0.1331,0.1292,0.1264,0.1172,0.1164,0.1141,0.1248,0.1102,0.1108,0.1119,0.1026,0.0984,0.0983,0.0986,0.0988,0.0991,0.0992,0,0.0856,0.0935,0.0954,0.1062,0.1072,0.1154,0.1188,0.1119,0.112,0.1124,0.1112,0.0899,0.0824,0.0856,0.0754,0.0762,0.0719,0.0722,0.0608,0.0638,0.0664,0.0544,0.0376,0.0375,0.0374,0.0373,0,0,0.084,0.0895,0.0955,0.0995,0.1065,0.1042,0.1042,0.0996,0.0915,0.0805,0.0706,0.0703,0.0731,0.0494,0.0485,0.0418,0.0529,0.0391,0.0869,0.0759,0.0784,0.0853,0.0697,0,0,0,0,0]},{"header":{"parameterUnit":"m.s-1","parameterCategory":2,"la1":30.2991,"la2":30.254,"lo1":-89.0895,"lo2":-89.0444,"dy":0.0017,"dx":0.0017,"nx":28,"ny":28,"refTime":"2023-10-14T09:00:00:Z","depth":"2","parameterNumber":3,"parameterNumberName":"V-component_of_CURRENTS"},"data":[0,0,0,0,0,0,0,0,0,0,0,0,0,0,0,0,0,0,0,0,0,0,0,0,0,0,0,0,0,0,0,0,0,0,0,0,0,0,0,0,0,0,0,0,0,0,0,0,0,0,0,0,0,0,0,0,0,0,0.0333,0.0328,0,0.0202,0.0204,0.0207,0.0207,0.0204,0.0201,0.0198,0.0036,0.0034,0.0032,0,0,0,0,0,0,0,0,0,0,0,0,0,0.0479,0.0481,0.0334,0.0327,0.0321,0.0201,0.0204,0.0207,0.0207,0.0204,0.02,0.0197,0.0036,0.0034,0.0032,0,0,0,0,0,0,0,0,0,0,0,0,0,0.0435,0.0482,0.0335,0.0271,0.026,0.0201,0.0204,0.0208,0.0208,0.0204,0.02,0.0196,0.0037,0.0034,0.0032,0.01,0,0,0.0024,0.0023,0,0,0,0,0,0,0,0,0.0438,0.0437,0.0286,0.0274,0.0262,0.0173,0.0192,0.0153,0.0209,0.028,0.0198,0.0194,0.0049,0.0046,0.0101,0.0092,0.0085,0.0024,0.0022,0.0021,0.002,0,0,0,0,0,0,0,0.0442,0.0441,0.0331,0.0279,0.0263,0.0207,0.0204,0.0189,0.0228,0.0273,0.0261,0.0169,0.0049,0.0104,0.0096,0.0083,0.0024,0.0021,0.002,0.0019,-0.0066,-0.0066,0,0,0,0,0,0,0.037,0.0445,0.0334,0.0322,0.0286,0.0205,0.0203,0.0246,0.0228,0.0207,0.0173,0.0168,0.0111,0.0099,0.009,0.0091,0.0021,0.0019,0.0017,-0.0065,-0.0066,-0.0067,0,0,0,0,0,0,0.0376,0.0368,0.0339,0.0332,0.0318,0.0203,0.0254,0.0244,0.0271,0.0142,0.0131,0.0196,0.0107,0.0093,0.0033,0.0086,0.0017,0.0015,-0.0064,-0.0065,-0.0066,0.0141,0,0,0,0,0,0,0.0385,0.0376,0.041,0.0333,0.0314,0.03,0.0252,0.0243,0.0197,0.0193,0.0159,0.0142,0.0103,0.0037,0.003,0.0081,0.0013,-0.0063,-0.0065,-0.0066,0.0135,0.0147,0.0157,0,0,0,0,0,0.0393,0.0385,0.0418,0.0399,0.0364,0.0295,0.0291,0.0221,0.0201,0.0237,0.0175,0.0142,0.0023,0.0035,0.0027,0.0079,-0.0063,-0.0064,-0.0066,0.013,0.0144,0.0157,0,0,0,0,0,0,0.0416,0.0378,0.0412,0.039,0.0356,0.0276,0.0206,0.0229,0.023,0.0165,0.0146,0.0126,0.0116,0.0038,0.0052,0.0037,-0.0029,-0.0032,0.0122,0.0135,0.0146,0.0148,0.0011,0,0,0,0,0,0.0452,0.0472,0.0422,0.0402,0.0355,0.032,0.0281,0.0243,0.0185,0.0185,0.0197,0.0137,0.0117,0.007,0.0053,0.0033,-0.0037,0.0047,0.0058,0.0069,0.0056,-0.0062,-0.0061,-0.0072,-0.0072,-0.0072,0,0,0.0445,0.0409,0.0425,0.041,0.0348,0.0332,0.0297,0.0182,0.0234,0.0156,0.0232,0.0204,0.0125,0.0128,0.011,0.0054,0.0055,0.0067,0.0078,0.0058,-0.0063,-0.0062,-0.0061,-0.0073,-0.0073,-0.0073,0,0,0.0416,0.0408,0.0438,0.0383,0.0261,0.0262,0.024,0.0211,0.0257,0.0289,0.0262,0.0252,0.0231,0.0218,0.019,0.0236,0.0149,0.0211,0.0245,0.0134,0.0134,0.0134,0.0152,0.0151,0.018,0.018,0.0181,0,0.0415,0.0441,0.042,0.0376,0.0297,0.0247,0.0232,0.0284,0.0283,0.0334,0.0297,0.0295,0.0286,0.0265,0.0304,0.0277,0.0202,0.0223,0.0154,0.015,0.0146,0.0163,0.0159,0.019,0.0189,0.0188,0.0187,0,0.0415,0.0399,0.033,0.0346,0.0325,0.0211,0.024,0.0307,0.0343,0.041,0.0437,0.0397,0.0364,0.0398,0.0379,0.0355,0.032,0.0223,0.0138,0.0161,0.0177,0.017,0.0204,0.0201,0.0198,0.0195,0,0,0.0474,0.0385,0.0354,0.0358,0.0251,0.0246,0.0306,0.0395,0.0454,0.0482,0.0532,0.0569,0.0517,0.0475,0.0431,0.0369,0.0386,0.0283,0.0272,0.0338,0.0197,0.0257,0.0254,0.0236,0.0233,0.0231,0.0262,0,0.0472,0.0398,0.0397,0.0374,0.0312,0.0299,0.0375,0.0446,0.0524,0.0585,0.0532,0.0548,0.0544,0.049,0.043,0.0375,0.0353,0.0391,0.0129,0.0125,0.0201,0.0241,0.0312,0.0345,0.0253,0.0252,0.0251,0,0.0432,0.0412,0.0352,0.0361,0.0346,0.0394,0.0469,0.0524,0.0585,0.061,0.0562,0.0537,0.0486,0.0428,0.0318,0.0313,0.0284,0.0249,0.0245,0.0205,0.0165,0.0278,0.0333,0.0237,0.0238,0.0239,0.024,0,0.0406,0.0364,0.033,0.0284,0.0315,0.0391,0.0451,0.0537,0.0584,0.0594,0.0571,0.0496,0.0374,0.0298,0.0281,0.0261,0.0146,0.0093,0.0143,0.0151,0.0114,0.0122,0.002,0.002,0.002,0.0019,0.0019,0,0.0307,0.0282,0.0318,0.0308,0.0335,0.0367,0.0448,0.0502,0.0517,0.0538,0.0527,0.0475,0.0311,0.0254,0.025,0.0187,0.0106,0.0175,0.0138,0.0201,0.0215,0.0002,-0.0,0.0021,0.002,0.002,0.002,0,0.0232,0.0167,0.0201,0.0307,0.0293,0.0334,0.0412,0.0476,0.0479,0.0466,0.0441,0.0394,0.0322,0.0263,0.0147,0.0131,0.0104,0.0114,0.0279,0.0261,0.0214,0.0221,0.0167,0.0168,0.017,0.0171,0.0172,0,0.0177,0.0158,0.0235,0.0218,0.0273,0.0311,0.0304,0.0378,0.0462,0.0455,0.0444,0.0369,0.0388,0.0278,0.0224,0.0226,0.0154,0.027,0.0258,0.0248,0.0217,0.0222,0.0227,0.0343,0.0345,0.0347,0.0349,0,0.0212,0.0228,0.0327,0.0268,0.0273,0.0296,0.0369,0.0402,0.0467,0.0495,0.0556,0.0578,0.0455,0.0449,0.0388,0.039,0.0274,0.0311,0.0177,0.0294,0.0413,0.0384,0.0383,0.0366,0.0365,0.0363,0.0362,0.0362,0.0313,0.0359,0.0432,0.0363,0.0338,0.035,0.0442,0.0541,0.0629,0.0718,0.0697,0.0715,0.0636,0.0595,0.0523,0.0399,0.0422,0.0406,0.0399,0.039,0.0403,0.0517,0.0501,0.05,0.0499,0.0499,0.0498,0,0.0427,0.0419,0.0469,0.0457,0.0488,0.0431,0.0503,0.0622,0.0757,0.0782,0.0877,0.0839,0.0846,0.0678,0.0556,0.0522,0.0479,0.0456,0.0428,0.0418,0.0407,0.0415,0.0519,0.0517,0.0516,0.0514,0,0,0.0484,0.0556,0.0554,0.0582,0.056,0.0648,0.0712,0.0803,0.0867,0.0948,0.0938,0.1021,0.087,0.0775,0.0708,0.0588,0.049,0.0556,0.0576,0.055,0.0536,0.0448,0.0461,0,0,0,0,0]}],[{"header":{"parameterUnit":"m.s-1","parameterCategory":2,"la1":30.2991,"la2":30.254,"lo1":-89.0895,"lo2":-89.0444,"dy":0.0017,"dx":0.0017,"nx":28,"ny":28,"refTime":"2023-10-14T09:00:00:Z","depth":"4","parameterNumber":2,"parameterNumberName":"U-component_of_CURRENTS"},"data":[0,0,0,0,0,0,0,0,0,0,0,0,0,0,0,0,0,0,0,0,0,0,0,0,0,0,0,0,0,0,0,0,0,0,0,0,0,0,0,0,0,0,0,0,0,0,0,0,0,0,0,0,0,0,0,0,0,0,-0.0427,-0.0427,0,-0.0406,-0.0405,-0.0405,-0.0384,-0.0384,-0.0384,-0.0384,-0.0291,-0.0289,-0.0286,0,0,0,0,0,0,0,0,0,0,0,0,0,-0.0416,-0.0416,-0.0427,-0.0427,-0.0427,-0.0406,-0.0405,-0.0404,-0.0384,-0.0384,-0.0384,-0.0384,-0.0292,-0.0289,-0.0286,0,0,0,0,0,0,0,0,0,0,0,0,0,-0.0405,-0.0416,-0.0427,-0.0418,-0.0418,-0.0406,-0.0405,-0.0404,-0.0384,-0.0384,-0.0384,-0.0384,-0.0293,-0.0289,-0.0285,-0.0255,0,0,-0.0273,-0.0271,0,0,0,0,0,0,0,0,-0.0406,-0.0405,-0.0419,-0.0419,-0.0418,-0.0402,-0.0368,-0.0352,-0.0383,-0.0391,-0.0384,-0.0385,-0.0325,-0.0318,-0.0307,-0.025,-0.0246,-0.0273,-0.027,-0.0269,-0.0268,0,0,0,0,0,0,0,-0.0407,-0.0406,-0.0413,-0.042,-0.0419,-0.0405,-0.0403,-0.0364,-0.0351,-0.039,-0.039,-0.0396,-0.0323,-0.0311,-0.0305,-0.0245,-0.0273,-0.0269,-0.0267,-0.0265,-0.0166,-0.0166,0,0,0,0,0,0,-0.0421,-0.0407,-0.0414,-0.0413,-0.0419,-0.0405,-0.0403,-0.0403,-0.0353,-0.0348,-0.0396,-0.0395,-0.0318,-0.0309,-0.0301,-0.0279,-0.0269,-0.0265,-0.0263,-0.0166,-0.0166,-0.0165,0,0,0,0,0,0,-0.0421,-0.0422,-0.0415,-0.0414,-0.0413,-0.0406,-0.0405,-0.0402,-0.0392,-0.0359,-0.0351,-0.039,-0.0318,-0.0307,-0.03,-0.0275,-0.0263,-0.026,-0.0166,-0.0166,-0.0166,-0.0223,0,0,0,0,0,0,-0.0421,-0.0422,-0.0424,-0.0415,-0.0414,-0.0409,-0.0405,-0.0402,-0.0398,-0.0397,-0.0351,-0.0343,-0.0317,-0.0307,-0.0296,-0.0269,-0.0256,-0.0167,-0.0166,-0.0166,-0.0221,-0.0225,-0.0227,0,0,0,0,0,-0.042,-0.0423,-0.0424,-0.0425,-0.0417,-0.0409,-0.0406,-0.0399,-0.0398,-0.039,-0.0387,-0.0344,-0.0294,-0.0305,-0.0292,-0.0263,-0.0167,-0.0166,-0.0166,-0.022,-0.0224,-0.0227,0,0,0,0,0,0,-0.0423,-0.0422,-0.0422,-0.0425,-0.042,-0.0408,-0.0408,-0.04,-0.0388,-0.0396,-0.0359,-0.0351,-0.033,-0.0293,-0.0304,-0.0232,-0.0215,-0.0212,-0.026,-0.0263,-0.0266,-0.025,-0.0253,0,0,0,0,0,-0.0425,-0.0425,-0.0422,-0.0425,-0.0426,-0.0416,-0.0412,-0.041,-0.0404,-0.0398,-0.0369,-0.0339,-0.0315,-0.0292,-0.0265,-0.023,-0.0188,-0.0196,-0.0199,-0.0202,-0.018,-0.0119,-0.0114,-0.0164,-0.0164,-0.0164,0,0,-0.0429,-0.043,-0.043,-0.0426,-0.0423,-0.0414,-0.0413,-0.0416,-0.04,-0.0389,-0.0363,-0.0355,-0.0313,-0.0287,-0.0269,-0.0253,-0.0173,-0.0201,-0.0204,-0.0179,-0.0117,-0.0112,-0.0108,-0.0163,-0.0163,-0.0163,0,0,-0.0438,-0.0437,-0.0439,-0.0434,-0.0438,-0.0424,-0.0425,-0.0415,-0.0403,-0.0389,-0.0382,-0.037,-0.0314,-0.0289,-0.0266,-0.0262,-0.0201,-0.0242,-0.0229,-0.0172,-0.0167,-0.0162,-0.0135,-0.0127,-0.0231,-0.0231,-0.0231,0,-0.0441,-0.0442,-0.0439,-0.0439,-0.0428,-0.0426,-0.0415,-0.0403,-0.0391,-0.0377,-0.0385,-0.0332,-0.0307,-0.0269,-0.0275,-0.0265,-0.0234,-0.0226,-0.0176,-0.017,-0.0164,-0.0137,-0.0127,-0.0234,-0.0233,-0.0233,-0.0233,0,-0.0446,-0.0448,-0.045,-0.0439,-0.0422,-0.042,-0.0402,-0.0385,-0.0371,-0.0359,-0.0334,-0.0326,-0.0282,-0.0278,-0.0275,-0.0219,-0.0215,-0.02,-0.017,-0.0162,-0.0135,-0.0124,-0.0237,-0.0237,-0.0236,-0.0235,0,0,-0.0441,-0.045,-0.0449,-0.0434,-0.0421,-0.0398,-0.0376,-0.0341,-0.0316,-0.0314,-0.0279,-0.0262,-0.0264,-0.0238,-0.0236,-0.0195,-0.0151,-0.0179,-0.0175,-0.0158,-0.0041,-0.0076,-0.0067,-0.0128,-0.0126,-0.0124,-0.0051,0,-0.0439,-0.0435,-0.0433,-0.0403,-0.0388,-0.0367,-0.0334,-0.0307,-0.0286,-0.0256,-0.0254,-0.0228,-0.0245,-0.0233,-0.0199,-0.0152,-0.0119,-0.0173,-0.0044,-0.004,-0.0075,-0.0054,-0.0117,-0.0043,-0.004,-0.0038,-0.0037,0,-0.0439,-0.0427,-0.0407,-0.0366,-0.0355,-0.0326,-0.0254,-0.0234,-0.0206,-0.0195,-0.0183,-0.0184,-0.0142,-0.0161,-0.0068,-0.01,-0.0069,-0.0045,-0.0041,-0.0035,-0.0053,-0.0041,-0.0016,-0.0018,-0.002,-0.0021,-0.0022,0,-0.0414,-0.0401,-0.0374,-0.0363,-0.0322,-0.0284,-0.025,-0.0211,-0.019,-0.0157,-0.014,-0.0108,-0.0083,-0.0028,-0.0005,-0.0012,0.0083,0.0089,0.008,0.0076,0.0109,0.0104,0.0161,0.016,0.016,0.016,0.016,0,-0.0403,-0.0379,-0.0357,-0.0335,-0.0281,-0.0255,-0.0204,-0.017,-0.0141,-0.012,-0.0108,-0.0091,-0.0044,-0.0008,0.0023,0.0077,0.0116,0.0096,0.0106,0.0078,0.0068,0.0115,0.0109,0.0163,0.0162,0.0162,0.0161,0,-0.0382,-0.0384,-0.0338,-0.0286,-0.0274,-0.0224,-0.0185,-0.0165,-0.0121,-0.009,-0.0078,-0.0051,0.0008,0.0029,0.011,0.0116,0.0168,0.0166,0.0111,0.0113,0.0118,0.0108,0.021,0.0209,0.0209,0.0209,0.0209,0,-0.0374,-0.0354,-0.0301,-0.0292,-0.0267,-0.0219,-0.0211,-0.0163,-0.0148,-0.0073,-0.0065,-0.0009,0.0005,0.0092,0.0113,0.0173,0.0161,0.0186,0.0177,0.013,0.0129,0.012,0.011,0.0208,0.0208,0.0208,0.0208,0,-0.0338,-0.032,-0.0286,-0.0278,-0.0258,-0.0244,-0.0215,-0.0195,-0.0144,-0.01,-0.0034,0.0007,0.0053,0.0093,0.0116,0.0154,0.0182,0.0184,0.0185,0.0177,0.0129,0.0127,0.0118,0.0207,0.0207,0.0207,0.0207,0,-0.0305,-0.0285,-0.0271,-0.0253,-0.0253,-0.0262,-0.0244,-0.0212,-0.0176,-0.0077,-0.0064,0.0003,0.0043,0.0081,0.0107,0.0137,0.0158,0.0171,0.0174,0.0175,0.0127,0.0059,0.0141,0,0,0,0,0,-0.027,-0.0267,-0.0266,-0.0248,-0.0256,-0.0258,-0.0254,-0.0243,-0.0179,-0.0128,-0.0083,-0.0036,0.0035,0.0052,0.0083,0.0084,0.0138,0.0119,0.0148,0.0202,0.0203,0.0148,0,0,0,0,0,0,-0.0258,-0.0246,-0.0259,-0.0259,-0.0256,-0.0268,-0.0265,-0.0235,-0.0201,-0.0128,-0.01,-0.0025,0.0023,0.003,0.009,0.0099,0.0121,0.0163,0.0164,0.0201,0.0202,0.0203,0.0147,0,0,0,0,0]},{"header":{"parameterUnit":"m.s-1","parameterCategory":2,"la1":30.2991,"la2":30.254,"lo1":-89.0895,"lo2":-89.0444,"dy":0.0017,"dx":0.0017,"nx":28,"ny":28,"refTime":"2023-10-14T09:00:00:Z","depth":"4","parameterNumber":3,"parameterNumberName":"V-component_of_CURRENTS"},"data":[0,0,0,0,0,0,0,0,0,0,0,0,0,0,0,0,0,0,0,0,0,0,0,0,0,0,0,0,0,0,0,0,0,0,0,0,0,0,0,0,0,0,0,0,0,0,0,0,0,0,0,0,0,0,0,0,0,0,0.0614,0.0615,0,0.0661,0.0661,0.0662,0.07,0.0701,0.0701,0.0702,0.0726,0.0726,0.0727,0,0,0,0,0,0,0,0,0,0,0,0,0,0.0559,0.056,0.0614,0.0615,0.0615,0.0661,0.0661,0.0662,0.07,0.0701,0.0701,0.0702,0.0726,0.0726,0.0727,0,0,0,0,0,0,0,0,0,0,0,0,0,0.0592,0.056,0.0614,0.064,0.0643,0.0661,0.0661,0.0662,0.07,0.0701,0.0701,0.0702,0.0726,0.0726,0.0727,0.0717,0,0,0.0728,0.0728,0,0,0,0,0,0,0,0,0.059,0.0594,0.0636,0.0638,0.0641,0.0675,0.0651,0.068,0.07,0.0678,0.0702,0.0702,0.0707,0.0709,0.0717,0.0718,0.0719,0.0728,0.0728,0.0729,0.0729,0,0,0,0,0,0,0,0.0588,0.0592,0.0633,0.0636,0.064,0.0649,0.0655,0.0657,0.0688,0.068,0.0683,0.0688,0.0708,0.0716,0.0717,0.072,0.0728,0.0728,0.0729,0.0729,0.0728,0.0728,0,0,0,0,0,0,0.0582,0.059,0.0631,0.0634,0.0617,0.065,0.0656,0.0664,0.0689,0.0693,0.0688,0.069,0.0715,0.0717,0.0718,0.075,0.0729,0.0729,0.0729,0.0729,0.0728,0.0728,0,0,0,0,0,0,0.058,0.0585,0.0629,0.0613,0.0619,0.065,0.0659,0.0664,0.0683,0.0695,0.0699,0.0702,0.0716,0.0718,0.0737,0.0749,0.0729,0.073,0.0729,0.0728,0.0728,0.0786,0,0,0,0,0,0,0.0578,0.0584,0.0594,0.0613,0.062,0.0648,0.0658,0.0665,0.0685,0.0688,0.0708,0.071,0.0716,0.0736,0.0737,0.075,0.073,0.0729,0.0729,0.0728,0.0785,0.0788,0.079,0,0,0,0,0,0.0576,0.0583,0.0594,0.06,0.0631,0.0649,0.0654,0.0677,0.0685,0.0696,0.0713,0.071,0.0733,0.0737,0.0738,0.0751,0.0729,0.0729,0.0728,0.0783,0.0787,0.079,0,0,0,0,0,0,0.0561,0.0588,0.0601,0.0615,0.0635,0.0656,0.0669,0.068,0.0702,0.0709,0.0717,0.0721,0.0742,0.073,0.0734,0.0744,0.0726,0.0726,0.0767,0.0771,0.0774,0.0776,0.073,0,0,0,0,0,0.0562,0.0579,0.0601,0.0615,0.0626,0.0648,0.0661,0.0676,0.0694,0.0705,0.0722,0.0729,0.0737,0.0743,0.0748,0.0757,0.0752,0.0758,0.0762,0.0764,0.0764,0.0771,0.0775,0.0726,0.0726,0.0726,0,0,0.0564,0.0578,0.059,0.0614,0.0633,0.0654,0.0658,0.0679,0.0697,0.0702,0.0737,0.0747,0.0741,0.076,0.0766,0.0755,0.0777,0.0764,0.0767,0.0765,0.0771,0.0776,0.078,0.0726,0.0726,0.0726,0,0,0.0572,0.0584,0.0605,0.0624,0.0651,0.0661,0.0668,0.0697,0.0712,0.0742,0.0749,0.0767,0.0781,0.0785,0.0785,0.08,0.0797,0.0795,0.0815,0.0821,0.0826,0.083,0.0844,0.0849,0.0793,0.0793,0.0793,0,0.0574,0.0605,0.0613,0.0637,0.0655,0.0665,0.069,0.0702,0.0736,0.0746,0.0759,0.0789,0.0793,0.0805,0.0817,0.081,0.0815,0.0809,0.0828,0.0832,0.0835,0.0848,0.0853,0.0796,0.0796,0.0795,0.0795,0,0.0601,0.0631,0.0643,0.0678,0.0689,0.0714,0.0727,0.0741,0.076,0.0778,0.0807,0.0822,0.0842,0.0839,0.084,0.0857,0.0855,0.0839,0.0827,0.0844,0.0856,0.086,0.08,0.0799,0.0798,0.0797,0,0,0.0602,0.0655,0.0663,0.0683,0.0717,0.0721,0.0744,0.0764,0.0783,0.0812,0.0842,0.0861,0.0879,0.0878,0.0879,0.0881,0.0919,0.0875,0.0874,0.0903,0.0946,0.0876,0.0873,0.0914,0.0915,0.0915,0.0951,0,0.0631,0.0678,0.0697,0.0734,0.0759,0.0766,0.0784,0.0796,0.0823,0.0852,0.0857,0.0898,0.0889,0.0919,0.0918,0.0936,0.0929,0.0911,0.0912,0.0912,0.0859,0.0875,0.0917,0.0954,0.0954,0.0955,0.0956,0,0.0666,0.0688,0.0741,0.0762,0.0772,0.0796,0.0816,0.0842,0.0871,0.0894,0.0927,0.0943,0.0977,0.0956,0.0985,0.0981,0.0962,0.0955,0.0956,0.087,0.0848,0.0926,0.0962,0.0962,0.0961,0.0961,0.096,0,0.0666,0.0714,0.0755,0.0771,0.0802,0.0819,0.0837,0.0867,0.0904,0.0949,0.0993,0.1008,0.1058,0.1039,0.1041,0.1027,0.1051,0.1029,0.0934,0.093,0.096,0.0955,0.1008,0.1008,0.1008,0.1007,0.1007,0,0.0695,0.0721,0.0765,0.0787,0.0818,0.0839,0.0899,0.0906,0.0967,0.1021,0.1041,0.1078,0.1084,0.1096,0.1063,0.1027,0.1075,0.094,0.0931,0.0984,0.0981,0.0964,0.0958,0.1009,0.1008,0.1008,0.1008,0,0.07,0.0743,0.0776,0.0812,0.0834,0.0859,0.0946,0.0991,0.1048,0.1125,0.1152,0.1171,0.1186,0.1164,0.1143,0.1073,0.103,0.0983,0.1059,0.1054,0.0898,0.0895,0.0899,0.0897,0.0895,0.0893,0.0892,0,0.0707,0.0732,0.0788,0.0826,0.0858,0.0922,0.0979,0.1033,0.1094,0.1171,0.12,0.123,0.1229,0.1151,0.1115,0.1041,0.0993,0.0969,0.0905,0.0895,0.0886,0.0886,0.0885,0.0889,0.0888,0.0888,0.0887,0,0.0695,0.0728,0.0759,0.0842,0.091,0.0977,0.1059,0.1092,0.1167,0.1228,0.1219,0.1176,0.117,0.1106,0.1052,0.0986,0.0995,0.0948,0.0951,0.0891,0.0882,0.0875,0.0877,0.0881,0.0882,0.0882,0.0883,0,0.0684,0.0707,0.0773,0.0844,0.0933,0.1003,0.1038,0.1093,0.1141,0.1204,0.1194,0.1181,0.1189,0.1077,0.103,0.0966,0.0923,0.0861,0.0867,0.0874,0.0837,0.0821,0.0795,0,0,0,0,0,0.0667,0.0717,0.0774,0.0857,0.0944,0.0995,0.1084,0.1121,0.1187,0.1164,0.1172,0.1146,0.1051,0.1023,0.0941,0.0993,0.0927,0.0891,0.0862,0.0844,0.0851,0.0802,0,0,0,0,0,0,0.0664,0.073,0.0767,0.0865,0.0922,0.1015,0.1062,0.1097,0.1078,0.1122,0.1072,0.1084,0.1005,0.1097,0.0928,0.0917,0.0871,0.0875,0.0871,0.0839,0.0846,0.0853,0.0805,0,0,0,0,0]}]]